Content
SEND FEEDBACK

Daily
Averages
Monthly
Summary
United States of America

CONCORD, NORTH CAROLINA


Home > North America > United States > North Carolina
Elevation: 664 feet     Latitude: 35 25N     Longitude: 080 36W

WEATHER
 
SELECT A DAY
Number of Records: 209,879;   Date Range: 5/21/01 - 7/20/14
 
SHARE

PRINT THIS DATA

[ ← Previous Day ]
WEATHER ALMANAC - JANUARY 31, 2013
[ Next Day → ]
[ °C ]   °F
Weather ElementAverageHighLow
Temperature43.4 °F51.8 °F (12:35 am)32 °F (9:55 pm)
Dewpoint29.2 °F44.6 °F (12:35 am)17.6 °F (1:55 pm)
Humidity59.6 %82 % (1:15 am)26 % (2:55 pm)
Barometer29.85 in30.06 in (8:35 pm)29.58 in (1:15 am)
Wind Speed10.8 mph24.2 mph (2:35 am)
Wind Gust34.5 mph (2:35 am)
Weather ElementAverage
Visibility10 mi
Wind DirectionSSW (200.7 °)

Weather ElementTotal
Precipitation---
Heating Degree Days23.1 (Base 65)
Averaged from 45 records on January 31, 2013
WEATHER CONDITIONS BREAKOUT
WIND DIRECTION BREAKOUT
WEATHER BY HOUR - JANUARY 31, 2013
[ °C ]   °F
Local TimeTemperatureDewpointHumidityBarometerVisibilityWind DirectionWind SpeedGust SpeedPrecipitationEventsConditions
12:35 AM51.8 °F44.6 °F76 %29.59 in10.0 miSW (220°)21.9 mph33.4 mphOvercast
12:55 AM50.0 °F42.8 °F76 %29.59 in10.0 miSW (220°)23.0 mph28.8 mphOvercast
1:15 AM50.0 °F44.6 °F82 %29.58 in10.0 miSW (220°)18.4 mph26.5 mphMostly Cloudy
1:35 AM50.0 °F44.6 °F82 %29.58 in10.0 miSW (220°)17.3 mph27.6 mphScattered Clouds
1:55 AM50.0 °F42.8 °F76 %29.59 in10.0 miSW (230°)20.7 mph31.1 mphScattered Clouds
2:15 AM50.0 °F42.8 °F76 %29.60 in10.0 miSW (220°)21.9 mph29.9 mphMostly Cloudy
2:35 AM50.0 °F42.8 °F76 %29.61 in10.0 miSW (230°)24.2 mph34.5 mphMostly Cloudy
2:55 AM50.0 °F41.0 °F71 %29.62 in10.0 miSW (230°)17.3 mph27.6 mphOvercast
3:15 AM48.2 °F42.8 °F82 %29.64 in10.0 miSW (230°)18.4 mph25.3 mphOvercast
3:35 AM48.2 °F42.8 °F82 %29.65 in10.0 miWest (270°)9.2 mph19.6 mphOvercast
3:55 AM48.2 °F41.0 °F76 %29.66 in10.0 miWSW (240°)13.8 mph25.3 mphOvercast
4:15 AM48.2 °F41.0 °F76 %29.68 in10.0 miWSW (240°)13.8 mph19.6 mphOvercast
4:35 AM48.2 °F37.4 °F66 %29.69 in10.0 miWSW (240°)10.4 mph25.3 mphMostly Cloudy
4:55 AM46.4 °F33.8 °F62 %29.71 in10.0 miWest (260°)12.7 mph26.5 mphScattered Clouds
5:15 AM44.6 °F32.0 °F61 %29.73 in10.0 miWest (260°)12.7 mph24.2 mphClear
5:35 AM44.6 °F30.2 °F57 %29.74 in10.0 miWest (260°)17.3 mph23.0 mphClear
5:55 AM42.8 °F30.2 °F61 %29.76 in10.0 miWest (260°)15.0 mph20.7 mphClear
6:15 AM42.8 °F28.4 °F57 %29.78 in10.0 miWest (270°)10.4 mph25.3 mphClear
6:35 AM41.0 °F30.2 °F65 %29.80 in10.0 miWest (280°)11.5 mph20.7 mphClear
6:55 AM42.8 °F28.4 °F57 %29.81 in10.0 miWest (280°)5.8 mph17.3 mphClear
7:55 AM39.2 °F24.8 °F56 %29.88 in10.0 miWest (270°)12.7 mph19.6 mphClear
8:55 AM41.0 °F24.8 °F53 %29.91 in10.0 miWest (270°)12.7 mph17.3 mphClear
9:55 AM42.8 °F24.8 °F49 %29.94 in10.0 miWNW (290°)11.5 mph17.3 mphClear
10:55 AM44.6 °F23.0 °F43 %29.96 in10.0 miWest (270°)12.7 mph18.4 mphClear
11:55 AM46.4 °F28.4 °F50 %29.95 in10.0 miWest (270°)11.5 mph18.4 mphClear
12:55 PM48.2 °F19.4 °F32 %29.94 in10.0 miWest (260°)9.2 mph16.1 mphScattered Clouds
1:55 PM48.2 °F17.6 °F30 %29.94 in10.0 miWest (280°)11.5 mph21.9 mphClear
2:55 PM51.8 °F17.6 °F26 %29.95 in10.0 miWest (270°)17.3 mph26.5 mphClear
3:55 PM50.0 °F17.6 °F28 %29.97 in10.0 miWest (280°)9.2 mph23.0 mphClear
4:55 PM48.2 °F17.6 °F30 %29.99 in10.0 miWest (280°)12.7 mph20.7 mphClear
5:55 PM44.6 °F19.4 °F37 %30.02 in10.0 miNW (310°)3.5 mphClear
6:55 PM37.4 °F21.2 °F52 %30.03 in10.0 miCalmClear
7:55 PM35.6 °F21.2 °F56 %30.04 in10.0 miCalmClear
8:15 PM33.8 °F23.0 °F65 %30.05 in10.0 miCalmClear
8:35 PM33.8 °F23.0 °F65 %30.06 in10.0 miCalmClear
8:55 PM33.8 °F24.8 °F70 %30.03 in10.0 miCalmClear
9:15 PM33.8 °F23.0 °F65 %30.03 in10.0 miCalmClear
9:35 PM33.8 °F23.0 °F65 %30.04 in10.0 miCalmClear
9:55 PM32.0 °F23.0 °F69 %30.06 in10.0 miCalmClear
10:15 PM32.0 °F23.0 °F69 %30.05 in10.0 miCalmClear
10:35 PM33.8 °F23.0 °F65 %30.05 in10.0 miSSW (210°)4.6 mphClear
10:55 PM37.4 °F23.0 °F56 %30.05 in10.0 miSW (220°)6.9 mphClear
11:15 PM41.0 °F21.2 °F45 %30.05 in10.0 miSW (230°)9.2 mphClear
11:35 PM41.0 °F21.2 °F45 %30.04 in10.0 miSW (220°)10.4 mphClear
11:55 PM41.0 °F21.2 °F45 %30.03 in10.0 miSW (220°)12.7 mph17.3 mphClear
Hourly data recorded from KJQF, located miles away from Concord, North Carolina







STORIES FROM OUR PARTNERS